Location: Carthage
(33.8834°N, 106.6595°W)
Time: 03:23:37
(UTC+00:00)

Cosmos 2322 Rocket - Pass Details

Date: 20 May 2026
Orbit: 831 x 850 km, 71.0° (Epoch: 9 June)

Event Time Altitude Azimuth Distance (km) Brightness Sun altitude
Rises 05:51:11 0° 312° (NW) 3,408 6.2 -33.5°
Reaches altitude 10° 05:55:43 10° 279° (W) 2,470 4.9 -33.8°
Enters shadow 05:57:08 11° 264° (W) 2,395 4.6 -33.9°
